Time,TemperatureF,DewpointF,PressureIn,WindDirection,WindDirectionDegrees,WindSpeedMPH,WindSpeedGustMPH,Humidity,HourlyPrecipIn,Conditions,Clouds,dailyrainin,SoftwareType,DateUTC
2013-06-01 00:01:00,64.9,34.9,29.80,NNW,337,0.0,0.0,33,0.00,,,0.00,WUHU21623XXSP,2013-06-01 07:01:00,
2013-06-01 00:06:00,64.9,34.9,29.80,NNW,337,0.0,0.0,33,0.00,,,0.00,WUHU21623XXSP,2013-06-01 07:06:00,
2013-06-01 00:11:00,64.7,34.7,29.80,NNW,337,0.0,0.0,33,0.00,,,0.00,WUHU21623XXSP,2013-06-01 07:11:00,
2013-06-01 00:16:00,64.6,35.4,29.80,NNW,337,0.0,0.0,34,0.00,,,0.00,WUHU21623XXSP,2013-06-01 07:16:00,
2013-06-01 00:21:00,64.0,34.9,29.80,NNW,337,0.0,0.0,34,0.00,,,0.00,WUHU21623XXSP,2013-06-01 07:21:00,
2013-06-01 00:26:00,63.8,34.7,29.80,NNW,337,0.0,0.0,34,0.00,,,0.00,WUHU21623XXSP,2013-06-01 07:26:00,
2013-06-01 00:31:00,63.5,34.4,29.80,NNW,337,0.0,0.0,34,0.00,,,0.00,WUHU21623XXSP,2013-06-01 07:31:00,
2013-06-01 00:36:00,63.1,34.1,29.80,NNW,337,0.0,0.0,34,0.00,,,0.00,WUHU21623XXSP,2013-06-01 07:36:00,
2013-06-01 00:41:00,62.8,33.8,29.80,NNW,337,0.0,0.0,34,0.00,,,0.00,WUHU21623XXSP,2013-06-01 07:41:00,
2013-06-01 00:46:00,62.9,33.9,29.80,NNW,337,0.0,0.0,34,0.00,,,0.00,WUHU21623XXSP,2013-06-01 07:46:00,
2013-06-01 00:51:00,62.9,33.9,29.80,NNW,337,0.0,0.0,34,0.00,,,0.00,WUHU21623XXSP,2013-06-01 07:51:00,
2013-06-01 00:56:00,62.9,33.9,29.79,NNW,337,0.0,0.0,34,0.00,,,0.00,WUHU21623XXSP,2013-06-01 07:56:00,
2013-06-01 01:01:00,62.8,33.8,29.80,NNW,337,0.0,0.0,34,0.00,,,0.00,WUHU21623XXSP,2013-06-01 08:01:00,
2013-06-01 01:06:00,62.6,33.6,29.79,NNW,337,0.0,0.0,34,0.00,,,0.00,WUHU21623XXSP,2013-06-01 08:06:00,
2013-06-01 01:11:00,62.6,34.4,29.79,NNW,337,0.0,0.0,35,0.00,,,0.00,WUHU21623XXSP,2013-06-01 08:11:00,
2013-06-01 01:16:00,62.4,34.2,29.79,NNW,337,0.0,0.0,35,0.00,,,0.00,WUHU21623XXSP,2013-06-01 08:16:00,
2013-06-01 01:21:00,62.2,33.3,29.79,NNW,337,0.0,0.0,34,0.00,,,0.00,WUHU21623XXSP,2013-06-01 08:21:00,
2013-06-01 01:26:00,62.0,33.8,29.79,NNW,337,0.0,0.0,35,0.00,,,0.00,WUHU21623XXSP,2013-06-01 08:26:00,
2013-06-01 01:31:00,62.0,33.8,29.79,NNW,337,0.0,0.0,35,0.00,,,0.00,WUHU21623XXSP,2013-06-01 08:31:00,
2013-06-01 01:36:00,62.0,33.8,29.79,NNW,337,0.0,0.0,35,0.00,,,0.00,WUHU21623XXSP,2013-06-01 08:36:00,
2013-06-01 01:41:00,61.5,33.4,29.80,NNW,337,0.0,0.0,35,0.00,,,0.00,WUHU21623XXSP,2013-06-01 08:41:00,
2013-06-01 01:46:00,61.1,33.0,29.79,NNW,337,0.0,0.0,35,0.00,,,0.00,WUHU21623XXSP,2013-06-01 08:46:00,
2013-06-01 01:51:00,61.0,33.6,29.80,NNW,337,0.0,0.0,36,0.00,,,0.00,WUHU21623XXSP,2013-06-01 08:51:00,
2013-06-01 01:56:00,60.6,33.3,29.80,NNW,337,0.0,0.0,36,0.00,,,0.00,WUHU21623XXSP,2013-06-01 08:56:00,
2013-06-01 02:01:00,60.4,33.1,29.80,NNW,337,0.0,0.0,36,0.00,,,0.00,WUHU21623XXSP,2013-06-01 09:01:00,
2013-06-01 02:06:00,60.2,32.9,29.79,NNW,337,0.0,0.0,36,0.00,,,0.00,WUHU21623XXSP,2013-06-01 09:06:00,
2013-06-01 02:11:00,60.2,32.9,29.79,NNW,337,0.0,0.0,36,0.00,,,0.00,WUHU21623XXSP,2013-06-01 09:11:00,
2013-06-01 02:16:00,60.2,32.9,29.79,NNW,337,0.0,0.0,36,0.00,,,0.00,WUHU21623XXSP,2013-06-01 09:16:00,
2013-06-01 02:21:00,59.9,32.7,29.79,NNW,337,0.0,0.0,36,0.00,,,0.00,WUHU21623XXSP,2013-06-01 09:21:00,
2013-06-01 02:26:00,59.5,33.0,29.79,NNW,337,0.0,0.0,37,0.00,,,0.00,WUHU21623XXSP,2013-06-01 09:26:00,
2013-06-01 02:31:00,59.5,33.0,29.79,NNW,337,0.0,0.0,37,0.00,,,0.00,WUHU21623XXSP,2013-06-01 09:31:00,
2013-06-01 02:36:00,59.3,32.8,29.79,NNW,337,0.0,0.0,37,0.00,,,0.00,WUHU21623XXSP,2013-06-01 09:36:00,
2013-06-01 02:41:00,59.3,32.8,29.79,NNW,337,0.0,0.0,37,0.00,,,0.00,WUHU21623XXSP,2013-06-01 09:41:00,
2013-06-01 02:46:00,59.2,33.4,29.79,NNW,337,0.0,0.0,38,0.00,,,0.00,WUHU21623XXSP,2013-06-01 09:46:00,
2013-06-01 02:51:00,59.2,33.4,29.79,NNW,337,0.0,0.0,38,0.00,,,0.00,WUHU21623XXSP,2013-06-01 09:51:00,
2013-06-01 02:56:00,59.5,33.7,29.79,NNW,337,0.0,0.0,38,0.00,,,0.00,WUHU21623XXSP,2013-06-01 09:56:00,
2013-06-01 03:01:00,59.9,34.0,29.78,NNW,337,0.0,0.0,38,0.00,,,0.00,WUHU21623XXSP,2013-06-01 10:01:00,
2013-06-01 03:06:00,59.9,34.0,29.79,NNW,337,0.0,0.0,38,0.00,,,0.00,WUHU21623XXSP,2013-06-01 10:06:00,
2013-06-01 03:11:00,59.7,33.9,29.78,NNW,337,0.0,0.0,38,0.00,,,0.00,WUHU21623XXSP,2013-06-01 10:11:00,
2013-06-01 03:16:00,59.7,33.9,29.78,NNW,337,0.0,0.0,38,0.00,,,0.00,WUHU21623XXSP,2013-06-01 10:16:00,
2013-06-01 03:21:00,59.7,33.2,29.78,NNW,337,0.0,0.0,37,0.00,,,0.00,WUHU21623XXSP,2013-06-01 10:21:00,
2013-06-01 03:26:00,59.5,33.7,29.78,NNW,337,4.5,4.9,38,0.00,,,0.00,WUHU21623XXSP,2013-06-01 10:26:00,
2013-06-01 03:31:00,59.2,34.1,29.78,NNW,337,4.5,5.4,39,0.00,,,0.00,WUHU21623XXSP,2013-06-01 10:31:00,
2013-06-01 03:36:00,58.6,33.5,29.78,NNW,337,4.7,6.0,39,0.00,,,0.00,WUHU21623XXSP,2013-06-01 10:36:00,
2013-06-01 03:41:00,58.6,33.5,29.78,NNW,337,4.0,6.0,39,0.00,,,0.00,WUHU21623XXSP,2013-06-01 10:41:00,
2013-06-01 03:45:00,58.6,34.2,29.78,NNW,337,3.4,4.9,40,0.00,,,0.00,WUHU21623XXSP,2013-06-01 10:45:00,
2013-06-01 03:50:00,58.4,34.0,29.78,NNW,337,0.0,4.9,40,0.00,,,0.00,WUHU21623XXSP,2013-06-01 10:50:00,
2013-06-01 03:55:00,57.9,33.6,29.78,NNW,337,0.0,3.1,40,0.00,,,0.00,WUHU21623XXSP,2013-06-01 10:55:00,
2013-06-01 04:00:00,57.7,34.0,29.78,NNW,337,0.0,0.0,41,0.00,,,0.00,WUHU21623XXSP,2013-06-01 11:00:00,
2013-06-01 04:05:00,57.2,33.6,29.77,NNW,337,0.0,0.0,41,0.00,,,0.00,WUHU21623XXSP,2013-06-01 11:05:00,
2013-06-01 04:10:00,56.8,33.2,29.77,NNW,337,0.0,0.0,41,0.00,,,0.00,WUHU21623XXSP,2013-06-01 11:10:00,
2013-06-01 04:15:00,56.8,33.2,29.77,NNW,337,0.0,0.0,41,0.00,,,0.00,WUHU21623XXSP,2013-06-01 11:15:00,
2013-06-01 04:20:00,56.5,32.9,29.77,NNW,337,0.0,0.0,41,0.00,,,0.00,WUHU21623XXSP,2013-06-01 11:20:00,
2013-06-01 04:25:00,56.5,32.9,29.77,NNW,337,0.0,0.0,41,0.00,,,0.00,WUHU21623XXSP,2013-06-01 11:25:00,
2013-06-01 04:30:00,56.5,32.9,29.77,NNW,337,0.0,0.0,41,0.00,,,0.00,WUHU21623XXSP,2013-06-01 11:30:00,
2013-06-01 04:35:00,56.1,32.6,29.76,NNW,337,0.0,0.0,41,0.00,,,0.00,WUHU21623XXSP,2013-06-01 11:35:00,
2013-06-01 04:40:00,55.9,32.4,29.76,NNW,337,0.0,0.0,41,0.00,,,0.00,WUHU21623XXSP,2013-06-01 11:40:00,
2013-06-01 04:45:00,55.6,32.7,29.76,NNW,337,0.0,0.0,42,0.00,,,0.00,WUHU21623XXSP,2013-06-01 11:45:00,
2013-06-01 04:50:00,55.6,32.7,29.76,NNW,337,0.0,0.0,42,0.00,,,0.00,WUHU21623XXSP,2013-06-01 11:50:00,
2013-06-01 04:55:00,55.4,32.5,29.76,North,0,0.0,0.0,42,0.00,,,0.00,WUHU21623XXSP,2013-06-01 11:55:00,
2013-06-01 05:00:00,55.0,32.8,29.76,ESE,112,0.0,0.0,43,0.00,,,0.00,WUHU21623XXSP,2013-06-01 12:00:00,
2013-06-01 05:05:00,55.4,32.5,29.76,ESE,112,0.0,0.0,42,0.00,,,0.00,WUHU21623XXSP,2013-06-01 12:05:00,
2013-06-01 05:10:00,55.6,32.7,29.76,ESE,112,0.0,0.0,42,0.00,,,0.00,WUHU21623XXSP,2013-06-01 12:10:00,
2013-06-01 05:15:00,55.7,32.8,29.75,North,0,0.0,4.5,42,0.00,,,0.00,WUHU21623XXSP,2013-06-01 12:15:00,
2013-06-01 05:20:00,55.9,33.0,29.75,North,0,0.0,5.4,42,0.00,,,0.00,WUHU21623XXSP,2013-06-01 12:20:00,
2013-06-01 05:25:00,55.6,32.1,29.75,North,0,4.3,5.6,41,0.00,,,0.00,WUHU21623XXSP,2013-06-01 12:25:00,
2013-06-01 05:30:00,55.2,32.4,29.75,North,0,2.5,5.6,42,0.00,,,0.00,WUHU21623XXSP,2013-06-01 12:30:00,
2013-06-01 05:35:00,55.0,32.2,29.75,North,0,3.4,4.5,42,0.00,,,0.00,WUHU21623XXSP,2013-06-01 12:35:00,
2013-06-01 05:40:00,54.8,32.0,29.75,North,0,0.0,4.5,42,0.00,,,0.00,WUHU21623XXSP,2013-06-01 12:40:00,
2013-06-01 05:45:00,54.7,31.9,29.75,North,0,0.0,3.1,42,0.00,,,0.00,WUHU21623XXSP,2013-06-01 12:45:00,
2013-06-01 05:50:00,54.3,32.1,29.75,North,0,0.0,0.0,43,0.00,,,0.00,WUHU21623XXSP,2013-06-01 12:50:00,
2013-06-01 05:55:00,54.1,32.0,29.75,North,0,0.0,0.0,43,0.00,,,0.00,WUHU21623XXSP,2013-06-01 12:55:00,
2013-06-01 06:00:00,53.9,31.8,29.75,North,0,0.0,0.0,43,0.00,,,0.00,WUHU21623XXSP,2013-06-01 13:00:00,
2013-06-01 06:05:00,53.9,31.8,29.75,North,0,0.0,0.0,43,0.00,,,0.00,WUHU21623XXSP,2013-06-01 13:05:00,
2013-06-01 06:10:00,54.1,32.0,29.76,North,0,0.0,0.0,43,0.00,,,0.00,WUHU21623XXSP,2013-06-01 13:10:00,
2013-06-01 06:15:00,54.1,32.0,29.75,North,0,0.0,0.0,43,0.00,,,0.00,WUHU21623XXSP,2013-06-01 13:15:00,
2013-06-01 06:20:00,54.1,32.5,29.75,North,0,0.0,0.0,44,0.00,,,0.00,WUHU21623XXSP,2013-06-01 13:20:00,
2013-06-01 06:25:00,54.3,32.7,29.76,North,0,0.0,0.0,44,0.00,,,0.00,WUHU21623XXSP,2013-06-01 13:25:00,
2013-06-01 06:30:00,54.5,32.9,29.76,North,0,0.0,0.0,44,0.00,,,0.00,WUHU21623XXSP,2013-06-01 13:30:00,
2013-06-01 06:35:00,54.8,33.8,29.76,North,0,0.0,0.0,45,0.00,,,0.00,WUHU21623XXSP,2013-06-01 13:35:00,
2013-06-01 06:40:00,55.0,35.1,29.76,North,0,0.0,0.0,47,0.00,,,0.00,WUHU21623XXSP,2013-06-01 13:40:00,
2013-06-01 06:45:00,55.4,35.4,29.76,North,0,0.0,0.0,47,0.00,,,0.00,WUHU21623XXSP,2013-06-01 13:45:00,
2013-06-01 06:50:00,55.7,36.3,29.77,North,0,0.0,0.0,48,0.00,,,0.00,WUHU21623XXSP,2013-06-01 13:50:00,
2013-06-01 06:55:00,56.1,37.2,29.77,North,0,0.0,0.0,49,0.00,,,0.00,WUHU21623XXSP,2013-06-01 13:55:00,
2013-06-01 07:00:00,56.8,37.8,29.76,ENE,67,0.0,0.0,49,0.00,,,0.00,WUHU21623XXSP,2013-06-01 14:00:00,
2013-06-01 07:05:00,57.2,38.2,29.77,SE,135,3.6,5.4,49,0.00,,,0.00,WUHU21623XXSP,2013-06-01 14:05:00,
2013-06-01 07:10:00,57.7,38.6,29.77,ESE,112,0.0,5.4,49,0.00,,,0.00,WUHU21623XXSP,2013-06-01 14:10:00,
2013-06-01 07:15:00,58.1,39.0,29.77,ESE,112,3.8,6.3,49,0.00,,,0.00,WUHU21623XXSP,2013-06-01 14:15:00,
2013-06-01 07:20:00,58.6,39.5,29.77,SE,135,4.3,6.9,49,0.00,,,0.00,WUHU21623XXSP,2013-06-01 14:20:00,
2013-06-01 07:25:00,58.6,39.5,29.77,ESE,112,3.4,7.6,49,0.00,,,0.00,WUHU21623XXSP,2013-06-01 14:25:00,
2013-06-01 07:30:00,59.0,39.8,29.77,ESE,112,4.3,7.6,49,0.00,,,0.00,WUHU21623XXSP,2013-06-01 14:30:00,
2013-06-01 07:35:00,59.3,40.1,29.77,ESE,112,2.2,7.4,49,0.00,,,0.00,WUHU21623XXSP,2013-06-01 14:35:00,
2013-06-01 07:40:00,59.7,40.5,29.77,SE,135,6.0,6.9,49,0.00,,,0.00,WUHU21623XXSP,2013-06-01 14:40:00,
2013-06-01 07:45:00,60.2,41.0,29.77,ESE,112,5.8,6.9,49,0.00,,,0.00,WUHU21623XXSP,2013-06-01 14:45:00,
2013-06-01 07:50:00,60.6,41.9,29.78,East,90,3.4,5.8,50,0.00,,,0.00,WUHU21623XXSP,2013-06-01 14:50:00,
2013-06-01 07:55:00,61.1,42.3,29.78,SE,135,4.5,5.4,50,0.00,,,0.00,WUHU21623XXSP,2013-06-01 14:55:00,
2013-06-01 08:00:00,61.5,42.7,29.77,SE,135,0.0,5.6,50,0.00,,,0.00,WUHU21623XXSP,2013-06-01 15:00:00,
2013-06-01 08:05:00,62.2,42.8,29.78,SSE,157,6.3,6.9,49,0.00,,,0.00,WUHU21623XXSP,2013-06-01 15:05:00,
2013-06-01 08:10:00,62.6,43.2,29.78,SSE,157,3.1,7.4,49,0.00,,,0.00,WUHU21623XXSP,2013-06-01 15:10:00,
2013-06-01 08:15:00,63.1,43.6,29.78,South,180,3.1,7.4,49,0.00,,,0.00,WUHU21623XXSP,2013-06-01 15:15:00,
2013-06-01 08:20:00,64.0,43.9,29.78,SSE,157,0.0,6.9,48,0.00,,,0.00,WUHU21623XXSP,2013-06-01 15:20:00,
2013-06-01 08:25:00,64.6,43.9,29.78,SSE,157,4.7,7.6,47,0.00,,,0.00,WUHU21623XXSP,2013-06-01 15:25:00,
2013-06-01 08:30:00,64.9,44.2,29.78,South,180,4.5,7.6,47,0.00,,,0.00,WUHU21623XXSP,2013-06-01 15:30:00,
2013-06-01 08:35:00,65.5,44.1,29.78,SSW,202,0.0,7.4,46,0.00,,,0.00,WUHU21623XXSP,2013-06-01 15:35:00,
2013-06-01 08:40:00,65.8,44.4,29.78,SSW,202,4.5,8.7,46,0.00,,,0.00,WUHU21623XXSP,2013-06-01 15:40:00,
2013-06-01 08:45:00,66.4,45.0,29.78,SSW,202,3.6,8.7,46,0.00,,,0.00,WUHU21623XXSP,2013-06-01 15:45:00,
2013-06-01 08:50:00,67.1,45.0,29.79,SSW,202,4.9,8.1,45,0.00,,,0.00,WUHU21623XXSP,2013-06-01 15:50:00,
2013-06-01 08:55:00,68.0,45.8,29.79,SSW,202,2.5,8.1,45,0.00,,,0.00,WUHU21623XXSP,2013-06-01 15:55:00,
2013-06-01 09:00:00,68.5,45.7,29.79,SSW,202,4.9,9.2,44,0.00,,,0.00,WUHU21623XXSP,2013-06-01 16:00:00,
2013-06-01 09:05:00,69.4,45.9,29.78,SW,225,6.5,9.2,43,0.00,,,0.00,WUHU21623XXSP,2013-06-01 16:05:00,
2013-06-01 09:10:00,70.3,46.7,29.79,South,180,7.4,8.5,43,0.00,,,0.00,WUHU21623XXSP,2013-06-01 16:10:00,
2013-06-01 09:15:00,71.4,46.4,29.79,SW,225,6.0,10.7,41,0.00,,,0.00,WUHU21623XXSP,2013-06-01 16:15:00,
2013-06-01 09:20:00,71.9,46.2,29.79,SW,225,6.0,10.7,40,0.00,,,0.00,WUHU21623XXSP,2013-06-01 16:20:00,
2013-06-01 09:25:00,72.1,46.3,29.79,SSW,202,6.7,10.1,40,0.00,,,0.00,WUHU21623XXSP,2013-06-01 16:25:00,
2013-06-01 09:30:00,73.2,46.6,29.78,SW,225,8.3,10.1,39,0.00,,,0.00,WUHU21623XXSP,2013-06-01 16:30:00,
2013-06-01 09:35:00,74.1,46.7,29.78,SSW,202,9.6,13.6,38,0.00,,,0.00,WUHU21623XXSP,2013-06-01 16:35:00,
2013-06-01 09:40:00,75.2,47.7,29.78,SSW,202,7.6,13.6,38,0.00,,,0.00,WUHU21623XXSP,2013-06-01 16:40:00,
2013-06-01 09:45:00,75.5,47.3,29.78,SW,225,3.6,11.9,37,0.00,,,0.00,WUHU21623XXSP,2013-06-01 16:45:00,
2013-06-01 09:50:00,76.6,47.5,29.78,WSW,247,8.9,10.3,36,0.00,,,0.00,WUHU21623XXSP,2013-06-01 16:50:00,
2013-06-01 09:55:00,77.0,47.1,29.78,SSW,202,7.8,11.4,35,0.00,,,0.00,WUHU21623XXSP,2013-06-01 16:55:00,
2013-06-01 10:00:00,77.5,46.8,29.78,West,270,2.7,11.4,34,0.00,,,0.00,WUHU21623XXSP,2013-06-01 17:00:00,
2013-06-01 10:05:00,78.4,45.9,29.78,West,270,4.5,10.7,32,0.00,,,0.00,WUHU21623XXSP,2013-06-01 17:05:00,
2013-06-01 10:10:00,79.3,45.9,29.78,West,270,5.6,10.7,31,0.00,,,0.00,WUHU21623XXSP,2013-06-01 17:10:00,
2013-06-01 10:15:00,80.0,45.6,29.78,West,270,5.6,11.2,30,0.00,,,0.00,WUHU21623XXSP,2013-06-01 17:15:00,
2013-06-01 10:20:00,80.6,46.2,29.78,West,270,5.8,11.2,30,0.00,,,0.00,WUHU21623XXSP,2013-06-01 17:20:00,
2013-06-01 10:25:00,81.1,45.7,29.77,West,270,0.0,9.6,29,0.00,,,0.00,WUHU21623XXSP,2013-06-01 17:25:00,
2013-06-01 10:30:00,82.0,45.5,29.78,WNW,292,7.8,10.1,28,0.00,,,0.00,WUHU21623XXSP,2013-06-01 17:30:00,
2013-06-01 10:35:00,82.7,46.2,29.78,NW,315,5.6,10.1,28,0.00,,,0.00,WUHU21623XXSP,2013-06-01 17:35:00,
2013-06-01 10:40:00,83.3,45.7,29.77,NNW,337,10.3,12.5,27,0.00,,,0.00,WUHU21623XXSP,2013-06-01 17:40:00,
2013-06-01 10:45:00,84.0,46.3,29.77,NNW,337,13.0,29.5,27,0.00,,,0.00,WUHU21623XXSP,2013-06-01 17:45:00,
2013-06-01 10:50:00,84.5,46.7,29.77,North,0,12.3,29.5,27,0.00,,,0.00,WUHU21623XXSP,2013-06-01 17:50:00,
2013-06-01 10:55:00,85.1,46.3,29.77,NNW,337,17.4,19.9,26,0.00,,,0.00,WUHU21623XXSP,2013-06-01 17:55:00,
2013-06-01 11:00:00,85.4,46.5,29.77,North,0,12.8,23.5,26,0.00,,,0.00,WUHU21623XXSP,2013-06-01 18:00:00,
2013-06-01 11:05:00,85.6,45.7,29.77,North,351,16.8,23.5,25,0.00,,,0.00,WUHU21623XXSP,2013-06-01 18:05:00,
2013-06-01 11:10:00,86.2,46.2,29.77,North,0,12.3,22.6,25,0.00,,,0.00,WUHU21623XXSP,2013-06-01 18:10:00,
2013-06-01 11:15:00,86.5,46.4,29.77,North,0,17.0,22.6,25,0.00,,,0.00,WUHU21623XXSP,2013-06-01 18:15:00,
2013-06-01 11:20:00,86.5,46.4,29.77,North,0,22.4,22.4,25,0.00,,,0.00,WUHU21623XXSP,2013-06-01 18:20:00,
2013-06-01 11:25:00,86.7,46.6,29.76,NNE,22,12.5,22.4,25,0.00,,,0.00,WUHU21623XXSP,2013-06-01 18:25:00,
2013-06-01 11:30:00,87.2,47.0,29.76,North,0,17.7,21.9,25,0.00,,,0.00,WUHU21623XXSP,2013-06-01 18:30:00,
2013-06-01 11:35:00,87.4,47.2,29.76,North,0,11.2,21.3,25,0.00,,,0.00,WUHU21623XXSP,2013-06-01 18:35:00,
2013-06-01 11:40:00,88.0,46.6,29.76,NNE,22,15.0,18.3,24,0.00,,,0.00,WUHU21623XXSP,2013-06-01 18:40:00,
2013-06-01 11:45:00,88.5,47.0,29.76,North,0,15.9,18.3,24,0.00,,,0.00,WUHU21623XXSP,2013-06-01 18:45:00,
2013-06-01 11:50:00,89.2,47.6,29.76,NNE,22,13.2,20.1,24,0.00,,,0.00,WUHU21623XXSP,2013-06-01 18:50:00,
2013-06-01 11:55:00,89.6,48.0,29.76,NNE,12,15.1,20.1,24,0.00,,,0.00,WUHU21623XXSP,2013-06-01 18:55:00,
2013-06-01 12:00:00,90.1,46.1,29.76,NNE,22,10.7,20.1,22,0.00,,,0.00,WUHU21623XXSP,2013-06-01 19:00:00,
2013-06-01 12:05:00,90.3,46.3,29.76,NNE,16,13.9,20.6,22,0.00,,,0.00,WUHU21623XXSP,2013-06-01 19:05:00,
2013-06-01 12:10:00,90.7,47.8,29.75,NNE,22,13.2,20.6,23,0.00,,,0.00,WUHU21623XXSP,2013-06-01 19:10:00,
2013-06-01 12:15:00,91.0,48.0,29.75,NNE,22,12.1,19.7,23,0.00,,,0.00,WUHU21623XXSP,2013-06-01 19:15:00,
2013-06-01 12:20:00,91.0,48.0,29.75,NNE,13,13.5,19.5,23,0.00,,,0.00,WUHU21623XXSP,2013-06-01 19:20:00,
2013-06-01 12:25:00,91.4,48.4,29.75,NNE,12,12.2,20.1,23,0.00,,,0.00,WUHU21623XXSP,2013-06-01 19:25:00,
2013-06-01 12:30:00,91.7,47.4,29.75,NE,45,8.5,20.1,22,0.00,,,0.00,WUHU21623XXSP,2013-06-01 19:30:00,
2013-06-01 12:35:00,91.9,47.6,29.74,NE,45,18.8,19.5,22,0.00,,,0.00,WUHU21623XXSP,2013-06-01 19:35:00,
2013-06-01 12:40:00,92.3,46.7,29.74,NNE,22,10.5,19.5,21,0.00,,,0.00,WUHU21623XXSP,2013-06-01 19:40:00,
2013-06-01 12:45:00,92.5,46.9,29.74,North,0,11.6,18.8,21,0.00,,,0.00,WUHU21623XXSP,2013-06-01 19:45:00,
2013-06-01 12:50:00,92.8,47.1,29.74,North,0,15.2,22.4,21,0.00,,,0.00,WUHU21623XXSP,2013-06-01 19:50:00,
2013-06-01 12:55:00,93.2,47.5,29.74,NNW,337,11.4,22.4,21,0.00,,,0.00,WUHU21623XXSP,2013-06-01 19:55:00,
2013-06-01 13:00:00,93.4,47.6,29.74,NE,45,8.1,17.7,21,0.00,,,0.00,WUHU21623XXSP,2013-06-01 20:00:00,
2013-06-01 13:05:00,93.7,47.9,29.74,NE,45,11.6,20.4,21,0.00,,,0.00,WUHU21623XXSP,2013-06-01 20:05:00,
2013-06-01 13:10:00,93.7,46.6,29.74,NNE,22,10.1,20.4,20,0.00,,,0.00,WUHU21623XXSP,2013-06-01 20:10:00,
2013-06-01 13:15:00,94.3,47.1,29.74,NNE,22,8.3,16.6,20,0.00,,,0.00,WUHU21623XXSP,2013-06-01 20:15:00,
2013-06-01 13:20:00,94.6,47.3,29.73,North,0,13.4,18.6,20,0.00,,,0.00,WUHU21623XXSP,2013-06-01 20:20:00,
2013-06-01 13:25:00,94.6,47.3,29.73,NNE,22,7.2,18.6,20,0.00,,,0.00,WUHU21623XXSP,2013-06-01 20:25:00,
2013-06-01 13:30:00,94.6,47.3,29.73,NE,45,12.3,15.4,20,0.00,,,0.00,WUHU21623XXSP,2013-06-01 20:30:00,
2013-06-01 13:35:00,95.0,47.7,29.73,NE,45,8.3,15.4,20,0.00,,,0.00,WUHU21623XXSP,2013-06-01 20:35:00,
2013-06-01 13:40:00,95.2,47.8,29.73,NNE,22,12.3,13.2,20,0.00,,,0.00,WUHU21623XXSP,2013-06-01 20:40:00,
2013-06-01 13:45:00,95.5,48.1,29.73,North,5,9.8,16.6,20,0.00,,,0.00,WUHU21623XXSP,2013-06-01 20:45:00,
2013-06-01 13:50:00,95.9,48.4,29.73,North,0,17.0,17.4,20,0.00,,,0.00,WUHU21623XXSP,2013-06-01 20:50:00,
2013-06-01 13:55:00,96.1,48.6,29.72,North,0,9.4,17.4,20,0.00,,,0.00,WUHU21623XXSP,2013-06-01 20:55:00,
2013-06-01 14:00:00,96.4,48.8,29.72,NNE,22,12.3,16.8,20,0.00,,,0.00,WUHU21623XXSP,2013-06-01 21:00:00,
2013-06-01 14:05:00,96.8,49.1,29.72,North,0,8.5,13.6,20,0.00,,,0.00,WUHU21623XXSP,2013-06-01 21:05:00,
2013-06-01 14:10:00,96.8,49.1,29.72,North,0,12.1,13.6,20,0.00,,,0.00,WUHU21623XXSP,2013-06-01 21:10:00,
2013-06-01 14:15:00,97.0,47.9,29.72,NNE,22,10.5,15.7,19,0.00,,,0.00,WUHU21623XXSP,2013-06-01 21:15:00,
2013-06-01 14:20:00,97.1,49.4,29.71,NNW,337,6.7,15.7,20,0.00,,,0.00,WUHU21623XXSP,2013-06-01 21:20:00,
2013-06-01 14:25:00,97.3,48.2,29.71,NNE,22,6.9,11.4,19,0.00,,,0.00,WUHU21623XXSP,2013-06-01 21:25:00,
2013-06-01 14:30:00,97.3,48.2,29.71,NNE,22,6.9,15.0,19,0.00,,,0.00,WUHU21623XXSP,2013-06-01 21:30:00,
2013-06-01 14:35:00,97.5,48.3,29.71,ESE,112,1.1,15.0,19,0.00,,,0.00,WUHU21623XXSP,2013-06-01 21:35:00,
2013-06-01 14:40:00,97.7,49.9,29.71,North,0,7.6,13.4,20,0.00,,,0.00,WUHU21623XXSP,2013-06-01 21:40:00,
2013-06-01 14:45:00,98.0,50.1,29.70,SW,225,11.9,13.4,20,0.00,,,0.00,WUHU21623XXSP,2013-06-01 21:45:00,
2013-06-01 14:50:00,97.1,49.4,29.70,NNW,337,9.6,20.6,20,0.00,,,0.00,WUHU21623XXSP,2013-06-01 21:50:00,
2013-06-01 14:55:00,97.0,49.3,29.70,West,270,5.4,20.6,20,0.00,,,0.00,WUHU21623XXSP,2013-06-01 21:55:00,
2013-06-01 15:00:00,97.1,51.9,29.70,WSW,247,13.6,13.6,22,0.00,,,0.00,WUHU21623XXSP,2013-06-01 22:00:00,
2013-06-01 15:05:00,96.4,48.8,29.70,West,270,6.7,14.8,20,0.00,,,0.00,WUHU21623XXSP,2013-06-01 22:05:00,
2013-06-01 15:10:00,95.5,49.4,29.69,SW,225,9.2,15.0,21,0.00,,,0.00,WUHU21623XXSP,2013-06-01 22:10:00,
2013-06-01 15:15:00,95.2,49.1,29.69,West,270,15.4,17.9,21,0.00,,,0.00,WUHU21623XXSP,2013-06-01 22:15:00,
2013-06-01 15:20:00,95.2,49.1,29.69,WSW,247,8.9,17.9,21,0.00,,,0.00,WUHU21623XXSP,2013-06-01 22:20:00,
2013-06-01 15:25:00,95.0,50.2,29.69,WSW,247,10.7,16.8,22,0.00,,,0.00,WUHU21623XXSP,2013-06-01 22:25:00,
2013-06-01 15:30:00,95.2,51.5,29.68,SW,225,11.2,16.8,23,0.00,,,0.00,WUHU21623XXSP,2013-06-01 22:30:00,
2013-06-01 15:35:00,94.6,51.0,29.68,SW,225,12.5,19.0,23,0.00,,,0.00,WUHU21623XXSP,2013-06-01 22:35:00,
2013-06-01 15:40:00,95.3,51.6,29.68,SW,225,12.3,22.4,23,0.00,,,0.00,WUHU21623XXSP,2013-06-01 22:40:00,
2013-06-01 15:45:00,95.0,51.4,29.68,SW,225,16.6,22.4,23,0.00,,,0.00,WUHU21623XXSP,2013-06-01 22:45:00,
2013-06-01 15:50:00,94.1,51.8,29.68,West,270,17.2,20.1,24,0.00,,,0.00,WUHU21623XXSP,2013-06-01 22:50:00,
2013-06-01 15:55:00,93.2,51.0,29.68,WSW,247,13.0,22.6,24,0.00,,,0.00,WUHU21623XXSP,2013-06-01 22:55:00,
2013-06-01 16:00:00,93.7,51.4,29.68,WSW,247,21.9,22.6,24,0.00,,,0.00,WUHU21623XXSP,2013-06-01 23:00:00,
2013-06-01 16:05:00,94.4,50.9,29.68,WSW,247,11.6,21.9,23,0.00,,,0.00,WUHU21623XXSP,2013-06-01 23:05:00,
2013-06-01 16:10:00,95.0,51.4,29.67,WSW,247,19.9,19.9,23,0.00,,,0.00,WUHU21623XXSP,2013-06-01 23:10:00,
2013-06-01 16:15:00,94.6,51.0,29.67,WNW,292,19.5,19.9,23,0.00,,,0.00,WUHU21623XXSP,2013-06-01 23:15:00,
2013-06-01 16:20:00,94.6,51.0,29.67,WSW,247,20.4,21.7,23,0.00,,,0.00,WUHU21623XXSP,2013-06-01 23:20:00,
2013-06-01 16:25:00,94.1,51.8,29.67,SW,225,15.9,21.7,24,0.00,,,0.00,WUHU21623XXSP,2013-06-01 23:25:00,
2013-06-01 16:30:00,92.8,50.7,29.67,WSW,247,15.2,20.1,24,0.00,,,0.00,WUHU21623XXSP,2013-06-01 23:30:00,
2013-06-01 16:35:00,92.5,50.4,29.68,WSW,247,8.5,20.8,24,0.00,,,0.00,WUHU21623XXSP,2013-06-01 23:35:00,
2013-06-01 16:40:00,93.4,51.2,29.67,West,270,11.4,21.3,24,0.00,,,0.00,WUHU21623XXSP,2013-06-01 23:40:00,
2013-06-01 16:45:00,93.9,51.6,29.67,SW,225,6.9,21.3,24,0.00,,,0.00,WUHU21623XXSP,2013-06-01 23:45:00,
2013-06-01 16:50:00,94.3,51.9,29.67,WSW,247,15.7,21.0,24,0.00,,,0.00,WUHU21623XXSP,2013-06-01 23:50:00,
2013-06-01 16:55:00,94.4,52.0,29.67,WSW,247,13.6,21.0,24,0.00,,,0.00,WUHU21623XXSP,2013-06-01 23:55:00,
2013-06-01 17:00:00,94.3,51.9,29.67,WSW,253,14.2,21.0,24,0.00,,,0.00,WUHU21623XXSP,2013-06-02 00:00:00,
2013-06-01 17:05:00,94.1,51.8,29.67,West,270,11.6,18.6,24,0.00,,,0.00,WUHU21623XXSP,2013-06-02 00:05:00,
2013-06-01 17:10:00,93.9,51.6,29.67,WSW,247,9.6,16.6,24,0.00,,,0.00,WUHU21623XXSP,2013-06-02 00:10:00,
2013-06-01 17:15:00,93.9,51.6,29.67,West,270,8.3,15.4,24,0.00,,,0.00,WUHU21623XXSP,2013-06-02 00:15:00,
2013-06-01 17:20:00,94.1,51.8,29.66,WSW,252,11.0,15.4,24,0.00,,,0.00,WUHU21623XXSP,2013-06-02 00:20:00,
2013-06-01 17:25:00,94.1,51.8,29.66,WSW,247,6.7,16.1,24,0.00,,,0.00,WUHU21623XXSP,2013-06-02 00:25:00,
2013-06-01 17:30:00,94.3,51.9,29.66,WSW,247,11.4,16.1,24,0.00,,,0.00,WUHU21623XXSP,2013-06-02 00:30:00,
2013-06-01 17:35:00,94.1,51.8,29.66,SW,225,8.1,13.2,24,0.00,,,0.00,WUHU21623XXSP,2013-06-02 00:35:00,
2013-06-01 17:40:00,94.1,51.8,29.66,WSW,247,10.5,13.4,24,0.00,,,0.00,WUHU21623XXSP,2013-06-02 00:40:00,
2013-06-01 17:45:00,94.1,51.8,29.66,SW,225,9.2,13.4,24,0.00,,,0.00,WUHU21623XXSP,2013-06-02 00:45:00,
2013-06-01 17:50:00,94.1,51.8,29.66,WSW,247,13.2,13.2,24,0.00,,,0.00,WUHU21623XXSP,2013-06-02 00:50:00,
2013-06-01 17:55:00,94.4,52.0,29.66,WSW,247,12.1,13.6,24,0.00,,,0.00,WUHU21623XXSP,2013-06-02 00:55:00,
2013-06-01 18:00:00,94.4,52.0,29.66,WSW,247,8.7,16.1,24,0.00,,,0.00,WUHU21623XXSP,2013-06-02 01:00:00,
2013-06-01 18:05:00,93.9,51.6,29.66,SW,225,13.6,16.1,24,0.00,,,0.00,WUHU21623XXSP,2013-06-02 01:05:00,
2013-06-01 18:10:00,93.7,51.4,29.66,WSW,247,11.4,15.2,24,0.00,,,0.00,WUHU21623XXSP,2013-06-02 01:10:00,
2013-06-01 18:15:00,93.5,51.3,29.65,West,270,10.1,15.4,24,0.00,,,0.00,WUHU21623XXSP,2013-06-02 01:15:00,
2013-06-01 18:20:00,93.2,51.0,29.66,WSW,247,11.6,15.4,24,0.00,,,0.00,WUHU21623XXSP,2013-06-02 01:20:00,
2013-06-01 18:25:00,93.0,50.8,29.66,WSW,247,9.2,13.6,24,0.00,,,0.00,WUHU21623XXSP,2013-06-02 01:25:00,
2013-06-01 18:30:00,92.8,51.8,29.66,WSW,247,11.6,15.0,25,0.00,,,0.00,WUHU21623XXSP,2013-06-02 01:30:00,
2013-06-01 18:35:00,92.8,51.8,29.65,WSW,247,12.8,15.0,25,0.00,,,0.00,WUHU21623XXSP,2013-06-02 01:35:00,
2013-06-01 18:40:00,92.8,51.8,29.66,SW,225,8.7,13.6,25,0.00,,,0.00,WUHU21623XXSP,2013-06-02 01:40:00,
2013-06-01 18:45:00,92.6,51.6,29.66,WSW,247,12.3,13.6,25,0.00,,,0.00,WUHU21623XXSP,2013-06-02 01:45:00,
2013-06-01 18:50:00,92.6,51.6,29.66,SW,225,9.2,13.6,25,0.00,,,0.00,WUHU21623XXSP,2013-06-02 01:50:00,
2013-06-01 18:55:00,92.3,51.3,29.66,SW,225,10.7,13.6,25,0.00,,,0.00,WUHU21623XXSP,2013-06-02 01:55:00,
2013-06-01 19:00:00,91.7,50.8,29.66,SW,225,8.9,11.9,25,0.00,,,0.00,WUHU21623XXSP,2013-06-02 02:00:00,
2013-06-01 19:05:00,91.2,50.4,29.66,SW,225,8.1,10.3,25,0.00,,,0.00,WUHU21623XXSP,2013-06-02 02:05:00,
2013-06-01 19:10:00,90.5,49.8,29.66,SW,225,9.4,11.2,25,0.00,,,0.00,WUHU21623XXSP,2013-06-02 02:10:00,
2013-06-01 19:15:00,89.9,49.3,29.66,SW,225,7.2,12.1,25,0.00,,,0.00,WUHU21623XXSP,2013-06-02 02:15:00,
2013-06-01 19:20:00,89.6,49.1,29.66,SW,225,8.1,12.1,25,0.00,,,0.00,WUHU21623XXSP,2013-06-02 02:20:00,
2013-06-01 19:25:00,89.0,48.5,29.66,SSW,202,11.2,11.2,25,0.00,,,0.00,WUHU21623XXSP,2013-06-02 02:25:00,
2013-06-01 19:30:00,89.0,48.5,29.66,SW,225,8.1,11.2,25,0.00,,,0.00,WUHU21623XXSP,2013-06-02 02:30:00,
2013-06-01 19:35:00,89.0,48.5,29.66,SW,225,7.6,9.2,25,0.00,,,0.00,WUHU21623XXSP,2013-06-02 02:35:00,
2013-06-01 19:40:00,89.2,48.7,29.66,SW,225,6.0,8.9,25,0.00,,,0.00,WUHU21623XXSP,2013-06-02 02:40:00,
2013-06-01 19:45:00,89.2,48.7,29.66,SW,225,9.8,10.1,25,0.00,,,0.00,WUHU21623XXSP,2013-06-02 02:45:00,
2013-06-01 19:50:00,89.2,48.7,29.66,SW,225,5.8,10.1,25,0.00,,,0.00,WUHU21623XXSP,2013-06-02 02:50:00,
2013-06-01 19:55:00,88.7,48.3,29.66,SW,225,6.3,8.5,25,0.00,,,0.00,WUHU21623XXSP,2013-06-02 02:55:00,
2013-06-01 20:00:00,88.3,48.0,29.66,SW,225,4.0,8.3,25,0.00,,,0.00,WUHU21623XXSP,2013-06-02 03:00:00,
2013-06-01 20:05:00,87.8,47.5,29.66,SW,225,6.0,8.3,25,0.00,,,0.00,WUHU21623XXSP,2013-06-02 03:05:00,
2013-06-01 20:10:00,87.4,47.2,29.66,SW,225,8.1,8.3,25,0.00,,,0.00,WUHU21623XXSP,2013-06-02 03:10:00,
2013-06-01 20:15:00,87.4,47.2,29.66,SW,225,6.0,8.3,25,0.00,,,0.00,WUHU21623XXSP,2013-06-02 03:15:00,
2013-06-01 20:20:00,87.4,47.2,29.66,SW,225,6.5,8.3,25,0.00,,,0.00,WUHU21623XXSP,2013-06-02 03:20:00,
2013-06-01 20:25:00,87.2,47.0,29.66,SW,225,6.9,8.9,25,0.00,,,0.00,WUHU21623XXSP,2013-06-02 03:25:00,
2013-06-01 20:30:00,86.9,46.8,29.66,SW,225,5.8,8.9,25,0.00,,,0.00,WUHU21623XXSP,2013-06-02 03:30:00,
2013-06-01 20:35:00,86.3,46.3,29.66,SW,225,6.0,8.3,25,0.00,,,0.00,WUHU21623XXSP,2013-06-02 03:35:00,
2013-06-01 20:40:00,85.6,45.7,29.66,SW,225,7.8,8.3,25,0.00,,,0.00,WUHU21623XXSP,2013-06-02 03:40:00,
2013-06-01 20:45:00,85.1,46.3,29.66,SSW,202,6.0,8.3,26,0.00,,,0.00,WUHU21623XXSP,2013-06-02 03:45:00,
2013-06-01 20:50:00,84.2,45.5,29.66,SSW,202,6.7,8.7,26,0.00,,,0.00,WUHU21623XXSP,2013-06-02 03:50:00,
2013-06-01 20:55:00,83.8,45.2,29.66,SW,225,5.8,8.7,26,0.00,,,0.00,WUHU21623XXSP,2013-06-02 03:55:00,
2013-06-01 21:00:00,83.3,44.7,29.66,SW,225,4.7,8.3,26,0.00,,,0.00,WUHU21623XXSP,2013-06-02 04:00:00,
2013-06-01 21:01:00,83.1,45.5,29.66,SSW,202,5.4,8.3,27,0.00,,,0.00,WUHU21623XXSP,2013-06-02 04:01:00,
2013-06-01 21:06:00,82.7,45.2,29.66,SW,225,4.0,8.3,27,0.00,,,0.00,WUHU21623XXSP,2013-06-02 04:06:00,
2013-06-01 21:11:00,82.0,44.6,29.66,SW,225,3.6,6.5,27,0.00,,,0.00,WUHU21623XXSP,2013-06-02 04:11:00,
2013-06-01 21:16:00,81.5,44.2,29.66,SSW,202,4.5,7.2,27,0.00,,,0.00,WUHU21623XXSP,2013-06-02 04:16:00,
2013-06-01 21:21:00,80.8,44.5,29.67,SSW,202,4.0,7.2,28,0.00,,,0.00,WUHU21623XXSP,2013-06-02 04:21:00,
2013-06-01 21:26:00,80.2,44.0,29.67,SW,225,3.8,6.5,28,0.00,,,0.00,WUHU21623XXSP,2013-06-02 04:26:00,
2013-06-01 21:31:00,80.0,43.8,29.67,SW,225,4.5,5.8,28,0.00,,,0.00,WUHU21623XXSP,2013-06-02 04:31:00,
2013-06-01 21:36:00,79.7,44.5,29.67,SW,225,3.4,6.3,29,0.00,,,0.00,WUHU21623XXSP,2013-06-02 04:36:00,
2013-06-01 21:41:00,79.7,44.5,29.68,SW,225,0.0,6.3,29,0.00,,,0.00,WUHU21623XXSP,2013-06-02 04:41:00,
2013-06-01 21:46:00,79.5,44.3,29.67,SW,225,0.0,3.4,29,0.00,,,0.00,WUHU21623XXSP,2013-06-02 04:46:00,
2013-06-01 21:51:00,79.0,43.9,29.67,WSW,247,5.6,5.6,29,0.00,,,0.00,WUHU21623XXSP,2013-06-02 04:51:00,
2013-06-01 21:56:00,78.4,43.4,29.68,WSW,247,7.8,8.5,29,0.00,,,0.00,WUHU21623XXSP,2013-06-02 04:56:00,
2013-06-01 22:01:00,77.9,43.8,29.68,WSW,247,11.0,11.2,30,0.00,,,0.00,WUHU21623XXSP,2013-06-02 05:01:00,
2013-06-01 22:06:00,77.5,44.3,29.68,WSW,247,9.6,11.9,31,0.00,,,0.00,WUHU21623XXSP,2013-06-02 05:06:00,
2013-06-01 22:11:00,77.5,44.3,29.67,WSW,247,8.1,11.9,31,0.00,,,0.00,WUHU21623XXSP,2013-06-02 05:11:00,
2013-06-01 22:16:00,77.3,45.0,29.68,WSW,247,7.4,11.6,32,0.00,,,0.00,WUHU21623XXSP,2013-06-02 05:16:00,
2013-06-01 22:21:00,77.3,45.0,29.68,WSW,247,7.6,10.1,32,0.00,,,0.00,WUHU21623XXSP,2013-06-02 05:21:00,
2013-06-01 22:26:00,77.0,44.7,29.68,SW,225,4.0,9.4,32,0.00,,,0.00,WUHU21623XXSP,2013-06-02 05:26:00,
2013-06-01 22:31:00,76.6,45.2,29.68,SW,225,0.0,7.6,33,0.00,,,0.00,WUHU21623XXSP,2013-06-02 05:31:00,
2013-06-01 22:36:00,76.3,44.9,29.68,SW,225,4.7,5.6,33,0.00,,,0.00,WUHU21623XXSP,2013-06-02 05:36:00,
2013-06-01 22:41:00,75.9,44.6,29.67,SW,225,3.8,6.3,33,0.00,,,0.00,WUHU21623XXSP,2013-06-02 05:41:00,
2013-06-01 22:46:00,75.7,44.4,29.67,SW,225,0.0,6.3,33,0.00,,,0.00,WUHU21623XXSP,2013-06-02 05:46:00,
2013-06-01 22:51:00,76.1,44.7,29.67,SW,225,0.0,5.8,33,0.00,,,0.00,WUHU21623XXSP,2013-06-02 05:51:00,
2013-06-01 22:56:00,75.7,44.4,29.67,SW,225,0.0,0.0,33,0.00,,,0.00,WUHU21623XXSP,2013-06-02 05:56:00,
2013-06-01 23:01:00,75.4,44.1,29.67,WSW,247,0.0,0.0,33,0.00,,,0.00,WUHU21623XXSP,2013-06-02 06:01:00,
2013-06-01 23:06:00,74.8,43.6,29.67,WSW,247,0.0,0.0,33,0.00,,,0.00,WUHU21623XXSP,2013-06-02 06:06:00,
2013-06-01 23:11:00,73.9,42.8,29.67,WSW,247,0.0,0.0,33,0.00,,,0.00,WUHU21623XXSP,2013-06-02 06:11:00,
2013-06-01 23:16:00,73.4,43.1,29.67,ENE,67,0.0,0.0,34,0.00,,,0.00,WUHU21623XXSP,2013-06-02 06:16:00,
2013-06-01 23:21:00,73.0,42.8,29.67,ENE,67,0.0,0.0,34,0.00,,,0.00,WUHU21623XXSP,2013-06-02 06:21:00,
2013-06-01 23:26:00,72.5,42.4,29.67,ENE,67,0.0,0.0,34,0.00,,,0.00,WUHU21623XXSP,2013-06-02 06:26:00,
2013-06-01 23:31:00,72.5,42.4,29.67,East,90,0.0,0.0,34,0.00,,,0.00,WUHU21623XXSP,2013-06-02 06:31:00,
2013-06-01 23:36:00,72.5,42.4,29.67,East,90,0.0,0.0,34,0.00,,,0.00,WUHU21623XXSP,2013-06-02 06:36:00,
2013-06-01 23:41:00,72.1,42.0,29.67,East,90,0.0,0.0,34,0.00,,,0.00,WUHU21623XXSP,2013-06-02 06:41:00,
2013-06-01 23:46:00,71.8,42.5,29.67,East,90,0.0,0.0,35,0.00,,,0.00,WUHU21623XXSP,2013-06-02 06:46:00,
2013-06-01 23:51:00,71.4,42.1,29.67,East,90,0.0,0.0,35,0.00,,,0.00,WUHU21623XXSP,2013-06-02 06:51:00,
2013-06-01 23:56:00,71.0,41.8,29.67,East,90,0.0,0.0,35,0.00,,,0.00,WUHU21623XXSP,2013-06-02 06:56:00,